Погода в Счастливом

Россия / Республика Крым     44°34′26″N   34°04′08″E
темп.,
°C
ветер,
м/с
пор.,
м/с
влажн.,
%
обл.,
%
осадки,
мм/ч
давл.,
гПа
погр.,
м
27 ноября, сб
сб2700:00+5вюв5895100 0.0 1013250
03:00+6юв5893100 1.8 1011336
06:00+7вюв4796100 0.5 1010217
09:00+8ююз279677 0.6 1009377
12:00+11юз6159097 0.4 10101175
15:00+11зюз4139095 0.7 1009945
18:00+9юз31294100 0.3 1010601
21:00+9зюз2894100 0.3 1011265
28 ноября, вс
вс2800:00+9зюз1596100 0.0 1011134
03:00+9зюз129382 0.0 101120
06:00+9юз1291100 0.0 101020
09:00+9ююз2396100 0.0 101162
12:00+10ю1284100 0.5 101091
15:00+9ююв3597100 1.6 1009410
18:00+9юв3494100 3.2 1009177
21:00+9юв359799 4.1 1009209
29 ноября, пн
пн2900:00+10ю2795100 0.1 1008386
03:00+9ю249663 0.1 100890
06:00+11ююв2486100 0.1 1007126
09:00+11вюв468260 1.1 1006141
12:00+15ю4166375 0.2 10041135
15:00+14зюз72171100 1.0 10031639
18:00+11юз82289100 0.8 10031757
21:00+10зюз91996100 2.1 10031460
30 ноября, вт
вт3000:00+9юз81698100 2.3 10011193
03:00+8з3119375 4.5 10031011
06:00+8зюз5139796 1.1 1003951
09:00+8зюз4109095 1.7 1004946
12:00+8зюз51085100 0.2 1003833
15:00+8зюз2583100 0.2 1000387
18:00+7ю41196100 5.9 9991059
21:00+6юз239299 8.8 995503
1 декабря, ср
ср100:000ссз71794100 5.8 1004815
03:000ссз478696 5.8 1010432
06:00+1сз378399 0.0 1011849
09:000ссз128587 0.0 101281
12:00+3зсз256689 0.0 10121158
15:00+3зюз597997 0.1 1011960
18:00+3з598698 0.4 1012984
21:00+2зсз268696 0.6 1013454